SCD 1 1 22490U 93009B 26126.95959900 .00000420 00000+0 64210-4 0 9993 2 22490 24.9684 102.1249 0042149 61.9176 329.4901 14.46102745755145 TECHSAT 1B (GO-32) 1 25397U 98043D 26126.97211786 .00000059 00000+0 45693-4 0 9992 2 25397 99.0063 118.6940 0001312 24.9613 335.1628 14.24420255445466 SCD 2 1 25504U 98060A 26126.28042868 .00000396 00000+0 59657-4 0 9997 2 25504 24.9968 330.5957 0016877 40.7961 132.8621 14.45510296454254 DLR-TUBSAT 1 25757U 99029B 26126.95910026 .00000094 00000+0 34867-4 0 9998 2 25757 98.6692 121.1089 0015261 113.7370 246.5427 14.52416065427262 TERRA 1 25994U 99068A 26126.93550409 .00000345 00000+0 79343-4 0 9994 2 25994 97.9487 178.1109 0002563 33.1626 69.5357 14.61070186403588 MAROC-TUBSAT 1 27004U 01056D 26126.44893777 -.00000032 00000+0 17021-4 0 9991 2 27004 99.8066 302.5242 0019096 249.0605 139.4716 13.70260670220470 AQUA 1 27424U 02022A 26126.92582640 .00000765 00000+0 16202-3 0 9999 2 27424 98.4255 95.3932 0002128 83.9313 340.0655 14.62094317277247 SHIYAN-1 (SY-1) 1 28220U 04012A 26126.74027249 .00011865 00000+0 37790-3 0 9992 2 28220 97.8694 202.1526 0006560 157.0783 203.0752 15.32710795204741 AURA 1 28376U 04026A 26126.90232794 .00000764 00000+0 16459-3 0 9995 2 28376 98.3393 83.0232 0001707 79.6651 280.4742 14.61265702160187 IRS-P5 (CARTOSAT-1) 1 28649U 05017A 26126.80495395 .00001373 00000+0 14436-3 0 9996 2 28649 97.5338 151.7445 0001663 128.9459 231.1909 14.90942798137657 SINAH 1 1 28893U 05043D 26126.91355871 .00000327 00000+0 71515-4 0 9992 2 28893 98.2800 261.0067 0015355 49.4071 310.8464 14.64129947 94483 RESURS-DK 1 1 29228U 06021A 26126.98267357 .00002096 00000+0 12438-3 0 9993 2 29228 69.9329 86.2004 0004282 332.8484 27.2457 15.13046046 96340 ARIRANG-2 (KOMPSAT-2) 1 29268U 06031A 26126.97845321 .00000485 00000+0 99704-4 0 9992 2 29268 97.8308 313.4189 0013773 199.1635 313.5100 14.64634635 55441 LAPAN-TUBSAT 1 29709U 07001A 26126.97555054 .00000601 00000+0 75450-4 0 9993 2 29709 98.1348 125.2731 0011481 326.7235 33.3256 14.85910736 45034 HAIYANG-1B 1 31113U 07010A 26126.89178129 .00000089 00000+0 49609-4 0 9997 2 31113 98.3482 110.3431 0012862 328.7888 31.2530 14.31016728994729 COSMO-SKYMED 1 1 31598U 07023A 26126.96051138 .00002383 00000+0 21279-3 0 9997 2 31598 97.8879 318.4736 0001758 86.5876 273.5546 14.96914351 23627 TERRASAR-X 1 31698U 07026A 26126.43123431 .00000876 00000+0 44890-4 0 9999 2 31698 97.4448 134.7330 0001922 81.9374 278.2079 15.19145111 46882 WORLDVIEW-1 (WV-1) 1 32060U 07041A 26126.93648869 .00005839 00000+0 24066-3 0 9998 2 32060 97.3900 247.2584 0002783 165.7279 194.4038 15.24464179 36595 YAOGAN-3 1 32289U 07055A 26126.98028228 .00002671 00000+0 27838-3 0 9993 2 32289 97.8184 157.2640 0001650 98.3786 261.7619 14.90628575999726 COSMO-SKYMED 2 1 32376U 07059A 26126.97962514 .00000362 00000+0 52053-4 0 9991 2 32376 97.8886 311.1753 0001455 90.5587 269.5793 14.82151841995895 RADARSAT-2 1 32382U 07061A 26126.96491493 -.00000090 00000+0 -17807-4 0 9991 2 32382 98.5791 134.4849 0001280 82.8655 277.2673 14.29981482960060 CARTOSAT-2A 1 32783U 08021A 26126.98591433 .00000725 00000+0 10446-3 0 9994 2 32783 97.7662 177.0948 0010349 242.8890 117.1267 14.79184479972713 HUANJING 1A (HJ-1A) 1 33320U 08041A 26126.96668887 .00000807 00000+0 10314-3 0 9995 2 33320 97.6675 114.4063 0017449 275.2560 84.6664 14.83895073952293 HUANJING 1B (HJ-1B) 1 33321U 08041B 26126.98496362 .00000887 00000+0 11378-3 0 9994 2 33321 97.6514 117.7185 0035513 320.8962 38.9686 14.83246103952304 GEOEYE 1 1 33331U 08042A 26126.95859753 .00000408 00000+0 85691-4 0 9999 2 33331 98.1242 201.4107 0004250 173.0186 187.1076 14.64687085944111 THEOS 1 33396U 08049A 26126.96349087 -.00000279 00000+0 -11100-3 0 9993 2 33396 98.5593 185.5791 0001353 89.3296 270.8036 14.20126133912113 COSMO-SKYMED 3 1 33412U 08054A 26126.90459115 .00001242 00000+0 87881-4 0 9995 2 33412 97.8324 344.7881 0016989 50.0712 310.2005 15.06688519950724 YAOGAN-4 1 33446U 08061A 26126.81109895 .00000964 00000+0 12479-3 0 9997 2 33446 97.9295 60.6331 0013651 200.1969 159.8706 14.83123571939535 GOSAT (IBUKI) 1 33492U 09002A 26126.88817918 .00000458 00000+0 89200-4 0 9998 2 33492 98.0841 238.4967 0001486 107.3210 252.8157 14.67540587925402 DEIMOS-1 1 35681U 09041A 26126.94691728 .00000884 00000+0 13791-3 0 9993 2 35681 97.7359 285.9731 0001388 32.2489 327.8805 14.75196414900800 DUBAISAT-1 1 35682U 09041B 26126.91402022 .00001043 00000+0 16224-3 0 9990 2 35682 97.9990 260.6397 0010012 196.3074 163.7814 14.75052340899014 OCEANSAT-2 1 35931U 09051A 26126.95206691 -.00000082 00000+0 -30152-4 0 9997 2 35931 98.2300 117.9255 0015484 357.1349 2.9727 13.99647981873562 WORLDVIEW-2 (WV-2) 1 35946U 09055A 26126.89984822 .00000121 00000+0 54608-4 0 9993 2 35946 98.4685 200.9295 0004063 0.3067 359.8122 14.37932365869719 SMOS 1 36036U 09059A 26126.49182442 .00000206 00000+0 79624-4 0 9991 2 36036 98.4432 314.4366 0001238 94.4441 265.6889 14.39750797867453 YAOGAN-7 1 36110U 09069A 26126.24977615 .00000468 00000+0 71927-4 0 9990 2 36110 98.0119 12.3657 0024734 171.3033 188.8611 14.77968214883431 TANDEM-X 1 36605U 10030A 26126.43123230 .00000815 00000+0 41995-4 0 9994 2 36605 97.4447 134.7325 0001820 103.8209 256.3228 15.19146722880301 CARTOSAT-2B 1 36795U 10035A 26126.92499345 .00000687 00000+0 10090-3 0 9994 2 36795 97.9981 177.7309 0010779 331.1360 28.9253 14.78610982853753 YAOGAN-10 1 36834U 10038A 26126.99142003 .00001791 00000+0 21517-3 0 9997 2 36834 97.9005 150.7226 0001472 88.9509 356.3208 14.85225439851095 COSMO-SKYMED 4 1 37216U 10060A 26126.99228571 .00000590 00000+0 80648-4 0 9999 2 37216 97.8884 311.1886 0001385 81.4228 278.7142 14.82150328838469 RESOURCESAT-2 1 37387U 11015A 26126.91517452 .00000104 00000+0 67789-4 0 9992 2 37387 98.7658 194.6377 0011562 22.6536 337.5149 14.21602968780319 HAIYANG-2A 1 37781U 11043A 26126.99525657 -.00000218 00000+0 -18068-3 0 9998 2 37781 99.3404 130.5482 0006908 163.9732 196.1637 13.75619745740994 RASAT 1 37791U 11044D 26126.95359903 .00000218 00000+0 46468-4 0 9999 2 37791 98.0552 218.9836 0019849 326.6582 144.1362 14.68126331787130 SRMSAT 1 37841U 11058D 26126.65604024 .00000420 00000+0 84320-4 0 9998 2 37841 19.9732 310.8519 0011779 106.9854 320.2524 14.11566398751949 PLEIADES 1A 1 38012U 11076F 26126.98587166 .00000308 00000+0 76126-4 0 9992 2 38012 98.1979 202.6388 0000995 91.3872 81.4276 14.58545166765989 ZIYUAN 1-02C (ZY 1-02C) 1 38038U 11079A 26126.96676266 .00000322 00000+0 12005-3 0 9992 2 38038 98.4084 195.1328 0007686 74.3320 29.3551 14.38180393753282 ARIRANG-3 (KOMPSAT-3) 1 38338U 12025B 26126.97379610 .00000412 00000+0 91080-4 0 9992 2 38338 98.1147 85.1536 0004131 236.9400 123.1406 14.62170096745322 EXACTVIEW-1 (ADS-1B) 1 38709U 12039C 26126.88358500 .00000125 00000+0 73203-4 0 9992 2 38709 98.9722 243.3519 0009849 292.4940 67.5196 14.24972219716822 SPOT 6 1 38755U 12047A 26126.96809704 .00000085 00000+0 28104-4 0 9993 2 38755 98.2130 194.7541 0001198 88.8260 271.3077 14.58537898727040 PLEIADES 1B 1 39019U 12068A 26126.91851894 .00000233 00000+0 59974-4 0 9996 2 39019 98.1948 202.5358 0001096 94.7002 265.4323 14.58570897714838 GOKTURK 2 1 39030U 12073A 26126.98550010 .00001001 00000+0 15399-3 0 9994 2 39030 97.6842 326.4779 0002129 93.3286 266.8168 14.75504681718437 LANDSAT 8 1 39084U 13008A 26126.96044337 .00000290 00000+0 74352-4 0 9994 2 39084 98.1844 197.7018 0001300 103.4976 256.6367 14.57140102691890 SARAL 1 39086U 13009A 26126.91049088 .00000065 00000+0 39896-4 0 9994 2 39086 98.5563 313.9998 0002809 64.0179 296.1294 14.32845911689691 GAOFEN-1 1 39150U 13018A 26126.99601936 .00000440 00000+0 70213-4 0 9995 2 39150 97.9102 199.8967 0018082 42.4068 317.8535 14.76530785702164 VNREDSAT 1 1 39160U 13021B 26126.96750588 .00000190 00000+0 44023-4 0 9997 2 39160 97.9106 181.9603 0001300 93.4829 266.6523 14.64813204694259 ARIRANG-5 (KOMPSAT-5) 1 39227U 13042A 26126.99742757 .00002859 00000+0 20829-3 0 9997 2 39227 97.6209 314.2740 0002238 285.1379 74.9599 15.04551400697661 SKYSAT-A 1 39418U 13066C 26126.58767606 .00002683 00000+0 15578-3 0 9990 2 39418 97.3843 177.3103 0023289 98.1902 262.1972 15.12739401682194 DUBAISAT-2 1 39419U 13066D 26126.91944785 .00005308 00000+0 33103-3 0 9994 2 39419 97.4564 118.1584 0011453 166.8469 193.3062 15.09887879680162 GPM-CORE 1 39574U 14009C 26126.97735769 .00006005 00000+0 13253-3 0 9999 2 39574 64.9722 86.2364 0011996 262.3294 97.6484 15.44821594691448 SENTINEL-1A 1 39634U 14016A 26126.53894367 .00000356 00000+0 85131-4 0 9994 2 39634 98.1791 134.6781 0001408 81.6754 278.4605 14.59201331643943 KAZEOSAT 1 1 39731U 14024A 26126.94574462 .00000104 00000+0 44524-4 0 9999 2 39731 98.3211 200.4151 0001530 93.5280 266.6085 14.42063244632619 ALOS-2 1 39766U 14029A 26126.95073532 .00000308 00000+0 48077-4 0 9998 2 39766 97.9213 224.7036 0001582 90.0098 270.1295 14.79457471645482 KAZEOSAT 2 1 40010U 14033A 26126.93745523 .00000857 00000+0 10517-3 0 9997 2 40010 97.5435 328.7234 0010202 93.7870 266.4513 14.85424195642831 HODOYOSHI-4 1 40011U 14033B 26126.94902481 .00002360 00000+0 26109-3 0 9992 2 40011 97.5456 313.7649 0025298 82.6121 277.7970 14.88036483642672 DEIMOS-2 1 40013U 14033D 26126.91665522 .00001681 00000+0 16443-3 0 9998 2 40013 97.5874 2.8467 0002164 89.4487 270.6982 14.93611167631564 HODOYOSHI-3 1 40015U 14033F 26126.88971164 .00001319 00000+0 15801-3 0 9993 2 40015 97.6384 291.6044 0034110 129.0822 231.3437 14.85301260641495 SPOT 7 1 40053U 14034A 26126.95063787 .00000351 00000+0 80957-4 0 9997 2 40053 98.0646 190.4999 0001439 77.4046 282.7316 14.60922110631110 SKYSAT-B 1 40072U 14037D 26126.83587612 .00001359 00000+0 15507-3 0 9993 2 40072 98.3810 83.4553 0006798 59.4830 300.7055 14.87919325639817 WORLDVIEW-3 (WV-3) 1 40115U 14048A 26126.92958322 .00000812 00000+0 10153-3 0 9998 2 40115 97.8572 202.3320 0002905 91.6241 268.5307 14.84953622635786 GAOFEN-2 1 40118U 14049A 26126.95947410 .00000702 00000+0 97831-4 0 9998 2 40118 98.0127 191.2015 0007788 17.9013 342.2472 14.80856841633138 YAOGAN-21 1 40143U 14053A 26126.98406939 .00006115 00000+0 24189-3 0 9999 2 40143 97.1506 168.9997 0006815 229.7009 130.3635 15.25785709648671 YAOGAN-22 1 40275U 14063A 26126.96600981 -.00000018 00000+0 75265-4 0 9996 2 40275 100.7665 277.5634 0005729 283.6804 76.3669 13.15530131554399 ASNARO 1 40298U 14070A 26126.93733911 .00005270 00000+0 25134-3 0 9999 2 40298 97.3455 204.1567 0002224 299.8493 60.2521 15.19502954637741 YAOGAN-24 1 40310U 14072A 26126.93809759 .00000867 00000+0 13290-3 0 9997 2 40310 98.1431 263.9413 0014831 40.0327 320.1972 14.76170948617631 CBERS 4 1 40336U 14079A 26126.98259287 .00000012 00000+0 18964-4 0 9998 2 40336 98.3554 185.1003 0001850 110.6148 249.5237 14.35497389598046 YAOGAN-26 1 40362U 14088A 26126.98095207 .00014354 00000+0 29828-3 0 9991 2 40362 97.0661 128.2068 0004616 165.2677 194.8708 15.45750795631335 SMAP 1 40376U 15003A 26126.98589474 .00000389 00000+0 84268-4 0 9991 2 40376 98.1289 134.6622 0001554 70.7982 289.3388 14.63402834601598 KOMPSAT-3A 1 40536U 15014A 26126.94050206 .00025776 00000+0 39937-3 0 9992 2 40536 97.6896 115.3514 0056701 329.2634 30.5300 15.52127118615414 SENTINEL-2A 1 40697U 15028A 26126.74611524 .00000370 00000+0 15766-3 0 9996 2 40697 98.5616 202.1833 0001249 84.5639 275.5686 14.30828141567800 GAOFEN-8 1 40701U 15030A 26126.96543807 .00020186 00000+0 43601-3 0 9993 2 40701 97.6925 317.9075 0008574 351.0741 9.0352 15.44526061605081 CARBONITE 1 (CBNT-1) 1 40718U 15032D 26126.97140166 .00001909 00000+0 23798-3 0 9992 2 40718 97.6497 306.7708 0015925 71.5550 288.7394 14.83463009583230 YAOGAN-27 1 40878U 15040A 26126.97730527 -.00000591 00000+0 -14449-2 0 9994 2 40878 100.1148 115.1522 0007741 313.9697 46.0778 13.16066520512244 GAOFEN-9 01 1 40894U 15047A 26126.96745510 .00000783 00000+0 10256-3 0 9990 2 40894 97.6309 164.5292 0025799 275.6128 84.2144 14.82808857574081 YAOGAN-28 1 41026U 15064A 26126.97702898 .00005490 00000+0 21024-3 0 9995 2 41026 97.3020 266.1094 0010134 344.4876 15.6051 15.26904302584398 YAOGAN-29 1 41038U 15069A 26126.95430477 .00000090 00000+0 17657-4 0 9991 2 41038 98.0055 155.5170 0002386 122.6586 237.4857 14.83049917564511 KENT RIDGE 1 1 41167U 15077B 26126.57631069 .00003987 00000+0 13351-3 0 9995 2 41167 14.9790 215.3827 0008335 12.2501 347.8023 15.22885208574744 GAOFEN-4 1 41194U 15083A 26126.92483648 -.00000327 00000+0 00000+0 0 9998 2 41194 0.4012 82.9272 0003160 124.4865 95.9979 1.00269700 38114 JASON-3 1 41240U 16002A 26126.91526495 -.00000029 00000+0 13330-3 0 9992 2 41240 66.0415 212.6045 0008212 274.2358 85.7722 12.87626747481935 SENTINEL-3A 1 41335U 16011A 26126.98019400 .00000105 00000+0 61360-4 0 9998 2 41335 98.6263 194.9512 0001029 103.6290 256.5005 14.26734613532185 ZIYUAN 3-02 (ZY 3-02) 1 41556U 16033A 26126.95045108 .00005142 00000+0 23167-3 0 9996 2 41556 97.3837 203.5121 0014078 81.6813 278.6019 15.21402555551713 CARTOSAT-2C 1 41599U 16040A 26126.96124426 .00002747 00000+0 13319-3 0 9999 2 41599 97.4505 187.4984 0007964 275.7212 84.3114 15.19335111547459 SKYSAT-C1 1 41601U 16040C 26126.06425799 .00009196 00000+0 26777-3 0 9998 2 41601 96.9598 160.0823 0003504 142.4934 217.6556 15.35601176551401 LAPAN-A3 1 41603U 16040E 26126.93708788 .00003620 00000+0 11630-3 0 9996 2 41603 97.1493 124.4489 0011105 154.0758 206.1044 15.32846080548493 GAOFEN-3 1 41727U 16049A 26126.94272814 .00000001 00000+0 13432-4 0 9992 2 41727 98.4024 135.3501 0000935 70.9636 289.1655 14.42227951512704 SKYSAT-C4 1 41771U 16058B 26126.95876640 .00013628 00000+0 26839-3 0 9992 2 41771 96.9207 150.4907 0003159 82.7609 277.4002 15.47330554539096 SKYSAT-C5 1 41772U 16058C 26126.88171284 .00006445 00000+0 19885-3 0 9999 2 41772 97.0504 169.3755 0004893 87.8833 272.2971 15.33883657537414 SKYSAT-C2 1 41773U 16058D 26126.97578554 .00009192 00000+0 22365-3 0 9990 2 41773 97.0201 150.6458 0003510 162.8681 197.2686 15.41154617538700 SKYSAT-C3 1 41774U 16058E 26126.67540829 .00018951 00000+0 32937-3 0 9991 2 41774 96.9066 159.1600 0002854 97.9770 262.1807 15.50846942539671 ALSAT-1B 1 41785U 16059C 26126.98598697 .00000328 00000+0 59407-4 0 9995 2 41785 97.7766 137.5275 0009582 8.3874 351.7493 14.72243346514517 PATHFINDER 1 1 41787U 16059E 26126.95710199 .00000629 00000+0 11830-3 0 9998 2 41787 97.8174 128.0951 0027934 340.7397 19.2750 14.67614380513664 SCATSAT 1 1 41790U 16059H 26126.75484280 .00001223 00000+0 16725-3 0 9998 2 41790 98.1213 190.0913 0055120 23.0801 337.2868 14.79439710 95463 GOKTURK 1A 1 41875U 16073A 26126.99813846 .00000472 00000+0 10158-3 0 9997 2 41875 98.1289 22.3092 0001419 81.7350 278.4013 14.62803051502801 RESOURCESAT-2A 1 41877U 16074A 26126.96743229 .00000221 00000+0 12094-3 0 9997 2 41877 98.7529 200.8057 0002166 166.5062 193.6174 14.21603907488444 CARTOSAT-2D 1 41948U 17008A 26126.99388896 .00002607 00000+0 12646-3 0 9995 2 41948 97.4128 187.0612 0005102 43.7350 316.4288 15.19367958511322 SENTINEL-2B 1 42063U 17013A 26126.94873601 .00000133 00000+0 67284-4 0 9999 2 42063 98.5642 202.3026 0001253 90.2913 269.8414 14.30817847478748 CARTOSAT-2E 1 42767U 17036C 26126.94563981 .00002771 00000+0 13462-3 0 9990 2 42767 97.4297 187.4196 0004503 92.5516 267.6235 15.19269966491887 FORMOSAT-5 1 42920U 17049A 26126.95047140 .00000168 00000+0 53660-4 0 9993 2 42920 98.2255 203.1748 0010922 203.7343 156.3350 14.50882686460697 SENTINEL-5P 1 42969U 17064A 26126.82648918 .00000055 00000+0 46981-4 0 9992 2 42969 98.7950 69.2572 0001228 79.1491 280.9823 14.19512008443694 SKYSAT-C11 1 42987U 17068A 26126.91971998 .00021941 00000+0 31864-3 0 9993 2 42987 97.4312 274.0368 0001587 126.8109 233.3292 15.55823930476828 SKYSAT-C10 1 42988U 17068B 26126.94283978 .00008074 00000+0 24837-3 0 9995 2 42988 97.4453 263.4262 0001690 101.1000 259.0432 15.33936012476037 SKYSAT-C9 1 42989U 17068C 26126.94089022 .00010728 00000+0 26572-3 0 9997 2 42989 97.4375 263.9747 0007253 286.3324 73.7124 15.40572638476408 SKYSAT-C8 1 42990U 17068D 26126.91031297 .00008837 00000+0 25302-3 0 9995 2 42990 97.4467 263.0390 0001350 111.4995 248.6393 15.36174756475977 SKYSAT-C7 1 42991U 17068E 26126.90237917 .00008402 00000+0 24110-3 0 9996 2 42991 97.4481 264.0180 0004850 248.2798 111.7930 15.36113619476036 SKYSAT-C6 1 42992U 17068F 26126.92057541 .00008121 00000+0 25127-3 0 9999 2 42992 97.4513 264.1437 0001102 307.5533 52.5609 15.33749991475996 CARTOSAT-2F 1 43111U 18004A 26126.51585767 .00005015 00000+0 24026-3 0 9991 2 43111 97.4057 186.5968 0002322 85.1126 275.0374 15.19372226461006 GAOFEN-1 02 1 43259U 18031A 26126.95843100 .00000854 00000+0 13011-3 0 9998 2 43259 98.0545 189.5939 0004095 124.6160 235.5436 14.76462894436617 GAOFEN-1 03 1 43260U 18031B 26126.93677178 .00000641 00000+0 99571-4 0 9998 2 43260 98.0539 189.4350 0002440 171.3450 188.7802 14.76423586436601 GAOFEN-1 04 1 43262U 18031D 26126.97982597 .00000318 00000+0 53084-4 0 9998 2 43262 98.0545 189.6640 0001007 118.5576 241.5735 14.76482498436604 SENTINEL-3B 1 43437U 18039A 26126.95334899 .00000101 00000+0 59596-4 0 9998 2 43437 98.6262 195.0729 0001549 84.8048 275.3310 14.26737137418241 GAOFEN-5 01 1 43461U 18043A 26126.95820791 .00000333 00000+0 78711-4 0 9998 2 43461 98.4549 97.6866 0001591 162.8828 197.2425 14.60576820425675 GAOFEN-6 1 43484U 18048A 26126.93814574 .00000734 00000+0 11207-3 0 9999 2 43484 97.7777 191.1277 0010970 314.2100 45.8208 14.76583704427303 GAOFEN-11 01 1 43585U 18063A 26126.97954390 .00010087 00000+0 15680-3 0 9994 2 43585 97.1311 194.0067 0005639 118.2083 241.9742 15.54110879433945 ICESAT-2 1 43613U 18070A 26126.96864343 .00002729 00000+0 99116-4 0 9992 2 43613 92.0037 279.8569 0001520 99.2875 260.8547 15.28247834426169 HYSIS 1 43719U 18096A 26126.93248642 .00000818 00000+0 11888-3 0 9998 2 43719 97.9852 193.9987 0000768 82.0283 278.1015 14.78609069401320 KAZSTSAT 1 43783U 18099AB 26126.53296972 .00000353 00000+0 33039-4 0 9994 2 43783 97.4331 160.3515 0004816 172.3886 187.7412 14.99788997405065 SAUDISAT 5A 1 43831U 18102A 26126.96849988 .00004811 00000+0 18070-3 0 9991 2 43831 97.3087 189.3508 0007989 281.2603 78.7739 15.27632563409389 SAUDISAT 5B 1 43833U 18102C 26126.99458750 .00004567 00000+0 17022-3 0 9993 2 43833 97.3192 192.3716 0008704 283.8741 76.1530 15.27911164409502 GAOFEN-10R 1 44622U 19066A 26126.99623830 .00001121 00000+0 14478-3 0 9998 2 44622 98.0475 80.2848 0004120 273.5518 86.5223 14.82969937356278 CARTOSAT-3 1 44804U 19081A 26127.12391832 .00003685 00000+0 17827-3 0 9995 2 44804 97.4325 189.6446 0011184 298.0115 61.9988 15.19170424357236 GAOFEN-12 01 1 44819U 19082A 26126.98576354 .00000346 00000+0 51906-4 0 9997 2 44819 97.8115 134.4525 0001962 119.6070 240.5338 14.80424966347996 CSG-1 1 44873U 19092A 26126.39732796 .00000419 00000+0 59237-4 0 9993 2 44873 97.8888 310.6048 0001363 95.6634 264.4735 14.82165170345282 NEMO-HD 1 46277U 20061F 26126.97992108 .00008834 00000+0 19718-3 0 9998 2 46277 97.1941 189.3691 0002047 128.7025 231.4407 15.43775928315623 SENTINEL-6A 1 46984U 20086A 26126.54909364 -.00000037 00000+0 10466-3 0 9994 2 46984 66.0415 221.5341 0007836 270.2455 89.7662 12.80931045254992 GAOFEN-12 02 1 48079U 21026A 26126.99245410 .00000352 00000+0 53206-4 0 9999 2 48079 97.9926 125.3436 0005274 24.8145 335.3319 14.80263416275666 PLEIADES NEO 3 1 48268U 21034A 26127.19340847 -.00000022 00000+0 37883-5 0 9990 2 48268 97.8935 202.5486 0001388 102.1010 258.0358 14.81673144271586 PLEIADES NEO 4 1 49070U 21073E 26126.82196856 .00001252 00000+0 16569-3 0 9994 2 49070 97.8928 202.1778 0001335 93.0743 267.0623 14.81675500255241 LANDSAT 9 1 49260U 21088A 26126.78896677 .00000342 00000+0 85771-4 0 9995 2 49260 98.1863 197.6093 0001388 105.6305 254.5047 14.57129215244973 CSG-2 1 51444U 22008A 26126.97117628 .00000246 00000+0 37399-4 0 9994 2 51444 97.8884 311.1663 0001391 83.9909 276.1463 14.82160336230487 GAOFEN-12 03 1 52912U 22069A 26126.94686855 .00000904 00000+0 12630-3 0 9993 2 52912 97.8324 15.8485 0000812 55.2134 304.9155 14.79969705208516 SWOT 1 54754U 22173A 26126.97352948 .00000005 00000+0 48775-5 0 9994 2 54754 77.6089 90.9434 0000827 126.5232 233.5996 14.00171875173384 GAOFEN-12 04 1 57654U 23123A 26126.96879997 .00000935 00000+0 12994-3 0 9993 2 57654 97.9132 45.5793 0001416 94.6459 265.4915 14.80148952146535 PARS 1 1 59065U 24039Q 26126.93583861 .00009673 00000+0 20764-3 0 9999 2 59065 97.4815 106.5907 0007414 261.3637 98.6771 15.44899246122277 RESURS-P 4 1 59371U 24061A 26126.98331044 .00002925 00000+0 97469-4 0 9993 2 59371 97.2732 75.6152 0001880 50.6654 309.4754 15.31895987117452 LEGION 1 1 59625U 24081A 26126.92647393 .00003176 00000+0 16466-3 0 9994 2 59625 97.5015 205.2216 0010736 155.6138 204.5605 15.16850371111282 LEGION 2 1 59626U 24081B 26126.95841600 .00003980 00000+0 20400-3 0 9991 2 59626 97.5016 205.3463 0012102 130.9536 229.2747 15.17084204111293 ALOS-4 (DAICHI-4) 1 60182U 24123A 26126.90245648 .00001333 00000+0 18541-3 0 9995 2 60182 97.9214 224.6596 0001637 98.5883 261.5514 14.79471724 99775 LEGION 3 1 60452U 24146A 26126.81171167 .00004116 00000+0 22556-3 0 9997 2 60452 45.0014 252.4046 0009103 282.8457 77.1405 15.15745810 95741 LEGION 4 1 60453U 24146B 26126.94560537 .00003969 00000+0 21876-3 0 9994 2 60453 45.0030 343.5836 0011642 77.6401 282.5780 15.15610358 94610 SENTINEL-2C 1 60989U 24157A 26126.77395519 .00000112 00000+0 59221-4 0 9990 2 60989 98.5627 202.1400 0001523 96.3197 263.8160 14.30819815 87063 IONOSFERA-M 1 1 61735U 24199A 26126.91235531 .00000053 00000+0 43246-4 0 9993 2 61735 98.7226 0.5092 0000158 122.6748 237.4445 14.22746613121838 IONOSFERA-M 2 1 61736U 24199B 26126.94674758 .00000046 00000+0 40269-4 0 9999 2 61736 98.7225 0.4543 0002012 84.1647 275.9760 14.22749492124961 BIOMASS 1 63772U 25090A 26126.57864705 .00001010 00000+0 18660-3 0 9995 2 63772 98.0747 314.4969 0001372 88.1723 271.9639 14.67539351 54583 GOSAT-GW (IBUKI GW) 1 64694U 25141A 26126.94037711 .00000134 00000+0 32109-4 0 9997 2 64694 98.0559 64.9315 0001439 83.0247 277.1122 14.67554540 45794 IONOSFERA-M 3 1 64876U 25155A 26126.92752399 .00000058 00000+0 46127-4 0 9998 2 64876 98.6002 89.8782 0001500 28.2410 331.8849 14.21479250 40547 IONOSFERA-M 4 1 64877U 25155B 26126.96242625 .00000054 00000+0 44308-4 0 9994 2 64877 98.6001 89.8300 0001059 50.4696 309.6575 14.21481280 40540 MICROCARB 1 64899U 25156A 26126.96494020 .00000486 00000+0 84689-4 0 9992 2 64899 97.9833 204.8378 0017314 47.7867 312.4807 14.72282634 41902 CO3D 3 1 64900U 25156B 26126.91673927 .00004625 00000+0 21657-3 0 9999 2 64900 97.4324 206.2028 0000645 37.8341 322.2940 15.20215281 43265 CO3D 4 1 64901U 25156C 26126.91690120 .00004793 00000+0 22433-3 0 9993 2 64901 97.4325 206.2030 0001930 83.5484 276.5970 15.20211384 43268 CO3D 2 1 64902U 25156D 26126.94937704 .00003954 00000+0 18564-3 0 9997 2 64902 97.4325 206.1339 0000401 95.5219 264.6062 15.20205994 43261 CO3D 1 1 64903U 25156E 26126.94952919 .00004124 00000+0 19350-3 0 9997 2 64903 97.4324 206.1338 0000553 75.2429 284.8867 15.20206472 43265 SENTINEL-6B 1 66514U 25264A 26126.54943850 -.00000043 00000+0 79407-4 0 9994 2 66514 66.0415 221.6595 0007993 269.5414 90.4686 12.80930890 21832 CSG-3 1 67304U 26001A 26126.95010225 .00000297 00000+0 43836-4 0 9995 2 67304 97.8887 311.1491 0001336 85.6211 274.5155 14.82153380 18356